GW4563 Weather Reports


Display with metric or nautical units.
time (UTC)temp
F
wind
direction
speed
MPH
gust
MPH
rain 1hr
in
rain 24hr
in
rain mn
in
humidity
%
barometer
mb
20260505035028 56 122 2.0 2.0 0.00 0.00 0.00 75 1018.4
20260505034524 56 104 1.0 2.0 0.00 0.00 0.00 76 1018.7
20260505034021 57 141 1.0 2.0 0.00 0.00 0.00 75 1018.4
20260505033518 57 126 2.0 2.0 0.00 0.00 0.00 74 1018.7
20260505033016 57 135 0.0 1.0 0.00 0.00 0.00 73 1018.6
20260505032513 57 132 1.0 2.0 0.00 0.00 0.00 73 1018.6
20260505032010 57 127 1.0 2.0 0.00 0.00 0.00 73 1018.3
20260505031507 57 105 1.0 2.0 0.00 0.00 0.00 72 1018.7
20260505031004 57 122 1.0 2.0 0.00 0.00 0.00 72 1018.7
20260505030500 58 148 2.0 2.0 0.00 0.00 0.00 70 1018.4
20260505025955 58 134 0.0 2.0 0.00 0.00 0.00 72 1018.6
20260505025453 58 122 0.0 2.0 0.00 0.00 0.00 71 1018.6
20260505024951 58 124 1.0 2.0 0.00 0.00 0.00 70 1018.6
20260505024448 59 116 1.0 2.0 0.00 0.00 0.00 70 1018.7
20260505023945 59 130 2.0 2.0 0.00 0.00 0.00 70 1018.6
20260505023442 59 131 0.0 2.0 0.00 0.00 0.00 68 1018.7
20260505022939 59 128 2.0 2.0 0.00 0.00 0.00 69 1018.6
20260505022437 59 134 1.0 2.0 0.00 0.00 0.00 68 1018.3
20260505021934 60 123 1.0 2.0 0.00 0.00 0.00 67 1018.2
20260505021430 60 126 1.0 2.0 0.00 0.00 0.00 67 1018.3
20260505020926 60 91 1.0 2.0 0.00 0.00 0.00 67 1018.2
20260505020422 60 133 2.0 2.0 0.00 0.00 0.00 67 1018.4
20260505015919 61 146 1.0 2.0 0.00 0.00 0.00 66 1018.2
20260505015416 61 134 1.0 2.0 0.00 0.00 0.00 64 1018.2
20260505014913 62 110 0.0 1.0 0.00 0.00 0.00 63 1018.2
20260505014410 62 128 1.0 1.0 0.00 0.00 0.00 62 1018.1
20260505013907 62 125 0.0 1.0 0.00 0.00 0.00 62 1018.1
20260505013404 62 140 1.0 2.0 0.00 0.00 0.00 61 1018.1
20260505012902 63 133 1.0 2.0 0.00 0.00 0.00 60 1018.0
20260505012400 63 143 1.0 2.0 0.00 0.00 0.00 60 1018.1
20260505011855 64 131 1.0 1.0 0.00 0.00 0.00 58 1018.1
20260505011352 64 137 1.0 2.0 0.00 0.00 0.00 58 1017.9
20260505010849 64 148 2.0 2.0 0.00 0.00 0.00 59 1018.0
20260505010344 64 130 0.0 2.0 0.00 0.00 0.00 56 1017.9
20260505005841 65 131 0.0 1.0 0.00 0.00 0.00 57 1017.8
20260505005338 65 153 1.0 1.0 0.00 0.00 0.00 57 1017.9
20260505004836 66 145 0.0 1.0 0.00 0.00 0.00 56 1017.6
20260505004331 66 119 0.0 1.0 0.00 0.00 0.00 55 1017.8
20260505003829 66 130 0.0 1.0 0.00 0.00 0.00 54 1017.5
20260505003326 67 134 0.0 2.0 0.00 0.00 0.00 53 1017.6
20260505002822 67 147 1.0 1.0 0.00 0.00 0.00 52 1017.5
20260505002319 68 129 0.0 1.0 0.00 0.00 0.00 52 1017.6
20260505001818 68 141 0.0 1.0 0.00 0.00 0.00 51 1017.5
20260505001314 69 138 0.0 1.0 0.00 0.00 0.00 50 1017.5
20260505000812 69 127 1.0 1.0 0.00 0.00 0.00 51 1017.4
20260505000310 69 120 1.0 2.0 0.00 0.00 0.00 50 1017.5
20260504235805 70 135 0.0 1.0 0.00 0.00 0.00 49 1017.4
20260504235304 70 124 1.0 1.0 0.00 0.00 0.00 50 1017.5
20260504234759 70 120 0.0 1.0 0.00 0.00 0.00 49 1017.3
20260504234257 70 126 1.0 1.0 0.00 0.00 0.00 51 1017.3
20260504233753 71 122 1.0 1.0 0.00 0.00 0.00 50 1017.4
20260504233248 71 129 0.0 2.0 0.00 0.00 0.00 50 1017.4
20260504232746 71 122 1.0 1.0 0.00 0.00 0.00 48 1017.5
20260504232243 71 139 2.0 2.0 0.00 0.00 0.00 46 1017.4
20260504231740 72 142 0.0 0.0 0.00 0.00 0.00 46 1017.4
20260504231236 72 147 0.0 1.0 0.00 0.00 0.00 46 1017.4
20260504230732 72 147 0.0 0.0 0.00 0.00 0.00 47 1017.5
20260504230231 73 128 1.0 2.0 0.00 0.00 0.00 49 1017.6
20260504225729 73 164 0.0 2.0 0.00 0.00 0.00 49 1017.6
20260504225225 73 145 0.0 3.0 0.00 0.00 0.00 44 1017.6
20260504224722 73 126 0.0 0.0 0.00 0.00 0.00 48 1017.6
20260504224220 73 131 0.0 2.0 0.00 0.00 0.00 49 1017.7
20260504223716 73 119 1.0 2.0 0.00 0.00 0.00 49 1017.7
20260504223211 73 132 0.0 2.0 0.00 0.00 0.00 50 1017.8
20260504222709 73 113 2.0 2.0 0.00 0.00 0.00 49 1017.7
20260504222205 74 154 0.0 1.0 0.00 0.00 0.00 49 1017.7
20260504221703 75 158 1.0 2.0 0.00 0.00 0.00 50 1017.7
20260504221200 76 122 2.0 2.0 0.00 0.00 0.00 49 1017.8
20260504220656 76 147 1.0 2.0 0.00 0.00 0.00 47 1017.5
20260504220154 75 120 0.0 2.0 0.00 0.00 0.00 48 1017.5
20260504215650 76 126 2.0 2.0 0.00 0.00 0.00 47 1017.5
20260504215147 75 19 1.0 2.0 0.00 0.00 0.00 44 1017.5
20260504214643 75 156 0.0 1.0 0.00 0.00 0.00 47 1017.6
20260504214140 75 113 0.0 2.0 0.00 0.00 0.00 42 1017.4
20260504213636 74 101 1.0 3.0 0.00 0.00 0.00 48 1017.3
20260504213133 75 134 0.0 2.0 0.00 0.00 0.00 44 1017.5
20260504212629 75 126 1.0 1.0 0.00 0.00 0.00 44 1017.6
20260504212126 73 147 1.0 2.0 0.00 0.00 0.00 49 1017.5
20260504211624 74 125 1.0 2.0 0.00 0.00 0.00 48 1017.5
20260504211120 76 89 1.0 3.0 0.00 0.00 0.00 45 1017.6
20260504210618 78 100 1.0 2.0 0.00 0.00 0.00 40 1017.4
20260504210114 78 128 2.0 3.0 0.00 0.00 0.00 43 1017.5
20260504205612 77 127 2.0 2.0 0.00 0.00 0.00 43 1017.7
20260504205109 75 93 2.0 3.0 0.00 0.00 0.00 43 1017.6
20260504204608 76 108 2.0 3.0 0.00 0.00 0.00 47 1017.7
20260504204106 78 145 2.0 3.0 0.00 0.00 0.00 37 1017.6
20260504203604 79 125 1.0 2.0 0.00 0.00 0.00 35 1017.8
20260504203101 79 136 4.0 4.0 0.00 0.00 0.00 36 1017.8
20260504202556 79 121 4.0 4.0 0.00 0.00 0.00 38 1017.9
20260504202054 80 209 1.0 3.0 0.00 0.00 0.00 36 1018.0
20260504201550 79 146 1.0 3.0 0.00 0.00 0.00 38 1017.9
20260504201048 79 127 2.0 2.0 0.00 0.00 0.00 37 1018.1
20260504200544 81 127 2.0 2.0 0.00 0.00 0.00 38 1018.0
20260504200042 79 173 0.0 2.0 0.00 0.00 0.00 37 1018.0
20260504195537 80 85 2.0 3.0 0.00 0.00 0.00 40 1018.2
20260504195034 80 192 2.0 3.0 0.00 0.00 0.00 34 1018.2
20260504194531 81 89 2.0 2.0 0.00 0.00 0.00 37 1018.1
20260504194026 79 95 2.0 2.0 0.00 0.00 0.00 36 1018.2
20260504193523 79 20 1.0 3.0 0.00 0.00 0.00 36 1018.2
20260504193022 79 103 3.0 4.0 0.00 0.00 0.00 36 1018.6
20260504192520 78 112 2.0 3.0 0.00 0.00 0.00 43 1018.7
20260504192018 78 115 2.0 4.0 0.00 0.00 0.00 42 1018.6
20260504191515 79 115 4.0 5.0 0.00 0.00 0.00 38 1018.6
20260504191011 79 34 1.0 4.0 0.00 0.00 0.00 36 1018.8
20260504190507 79 121 3.0 4.0 0.00 0.00 0.00 36 1018.9
20260504190003 79 192 1.0 2.0 0.00 0.00 0.00 36 1019.0
20260504185501 79 154 2.0 3.0 0.00 0.00 0.00 36 1019.0
20260504184957 80 109 2.0 2.0 0.00 0.00 0.00 37 1019.2
20260504184452 79 48 2.0 2.0 0.00 0.00 0.00 36 1019.2
20260504183948 79 172 2.0 3.0 0.00 0.00 0.00 35 1019.2
20260504183446 79 89 0.0 2.0 0.00 0.00 0.00 35 1019.3
20260504182944 78 190 2.0 3.0 0.00 0.00 0.00 40 1019.4
20260504182440 80 99 2.0 2.0 0.00 0.00 0.00 41 1019.4
20260504181938 78 320 1.0 2.0 0.00 0.00 0.00 38 1019.5
20260504181434 78 269 0.0 2.0 0.00 0.00 0.00 40 1019.4
20260504180933 77 74 1.0 2.0 0.00 0.00 0.00 40 1019.5
20260504180432 76 205 2.0 2.0 0.00 0.00 0.00 40 1019.7
20260504175930 77 62 2.0 3.0 0.00 0.00 0.00 38 1019.8
20260504175426 76 339 0.0 3.0 0.00 0.00 0.00 40 1019.8
20260504174924 76 256 2.0 4.0 0.00 0.00 0.00 38 1019.8
20260504174421 76 107 2.0 4.0 0.00 0.00 0.00 40 1019.7
20260504173919 76 174 2.0 2.0 0.00 0.00 0.00 45 1019.9
20260504173415 75 95 2.0 3.0 0.00 0.00 0.00 41 1019.7
20260504172913 75 147 0.0 2.0 0.00 0.00 0.00 42 1020.0
20260504172408 75 213 2.0 4.0 0.00 0.00 0.00 39 1020.0
20260504171905 75 59 0.0 2.0 0.00 0.00 0.00 41 1020.0
20260504171402 73 179 2.0 3.0 0.00 0.00 0.00 40 1020.1
20260504170859 74 241 2.0 3.0 0.00 0.00 0.00 38 1020.1
20260504170355 73 177 2.0 3.0 0.00 0.00 0.00 39 1020.3
20260504160314 70 27 1.0 2.0 0.00 0.00 0.00 46 1020.9
20260504150739 66 153 2.0 2.0 0.00 0.00 0.00 54 1021.4
20260504150236 66 175 2.0 2.0 0.00 0.00 0.00 57 1021.4
20260504141205 61 80 2.0 3.0 0.00 0.00 0.00 68 1021.7
20260504140702 60 134 1.0 3.0 0.00 0.00 0.00 72 1021.6
20260504140157 59 63 1.0 3.0 0.00 0.00 0.00 76 1021.7
20260504130626 51 110 2.0 2.0 0.00 0.00 0.00 95 1021.5
20260504130123 50 105 2.0 2.0 0.00 0.00 0.00 95 1021.6
20260504110514 44 120 1.0 2.0 0.00 0.00 0.00 97 1020.8
20260504100436 44 118 2.0 2.0 0.00 0.00 0.00 95 1020.7
20260504081829 45 101 2.0 2.0 0.00 0.00 0.00 93 1021.2
20260504081326 45 113 2.0 2.0 0.00 0.00 0.00 93 1021.0
20260504080821 45 136 1.0 2.0 0.00 0.00 0.00 93 1020.7
20260504080319 45 107 2.0 2.0 0.00 0.00 0.00 93 1020.6
20260504070246 46 106 2.0 2.0 0.00 0.00 0.00 93 1021.4
20260504060207 47 131 2.0 2.0 0.00 0.00 0.00 89 1021.3
20260504050635 49 126 1.0 2.0 0.00 0.00 0.00 85 1021.5
20260504050132 49 110 1.0 2.0 0.00 0.00 0.00 84 1021.6
20260504045624 49 132 1.0 2.0 0.00 0.00 0.00 83 1021.7
20260504045123 49 131 0.0 2.0 0.00 0.00 0.00 83 1021.8
20260504044622 49 103 1.0 2.0 0.00 0.00 0.00 84 1021.8
20260504044118 50 111 1.0 2.0 0.00 0.00 0.00 84 1022.0
20260504043615 50 93 0.0 1.0 0.00 0.00 0.00 84 1022.0
20260504043113 50 107 1.0 2.0 0.00 0.00 0.00 83 1022.0
20260504042610 50 115 0.0 1.0 0.00 0.00 0.00 83 1021.8
20260504042107 50 104 1.0 1.0 0.00 0.00 0.00 83 1021.8
20260504041602 50 86 0.0 1.0 0.00 0.00 0.00 83 1021.7
20260504041059 50 100 1.0 2.0 0.00 0.00 0.00 82 1021.9
20260504040556 50 118 0.0 2.0 0.00 0.00 0.00 80 1021.8
20260504040053 51 101 0.0 2.0 0.00 0.00 0.00 79 1021.8
20260504035549 51 109 1.0 2.0 0.00 0.00 0.00 78 1021.8